Rockford, IL

10:00 AM CDT on April 26, 2018 (GMT -0500)
Greater Rockford

Weather History for KRFD - April, 2014

Change the Weather History Date:

Tuesday, April 29, 2014

  Actual Average Record
Temperature  
Mean Temperature 52 °F 54 °F  
Max Temperature 57 °F 66 °F 90 °F (1915)
Min Temperature 46 °F 43 °F 27 °F (1958)
Degree Days  
Heating Degree Days 13 11  
Month to date heating degree days 468 465  
Since 1 July heating degree days 7452 6329  
Cooling Degree Days 0 0  
Month to date cooling degree days 0 0  
Year to date cooling degree days 0 0  
Growing Degree Days 2 (Base 50)    
Moisture  
Dew Point 46 °F    
Average Humidity 75    
Maximum Humidity 93    
Minimum Humidity 57    
Precipitation  
Precipitation 0.02 in 0.12 in 2.62 in (1963)
Month to date precipitation 2.86 3.23  
Year to date precipitation 7.63 8.33  
Snow  
Snow 0.00 in 0.00 in T in (2008)
Month to date snowfall 0.3 0.9  
Since 1 July snowfall 56.9 36.7  
Snow Depth 0.00 in    
Sea Level Pressure  
Sea Level Pressure 29.54 in    
Wind  
Wind Speed 11 mph (ESE)    
Max Wind Speed 28 mph    
Max Gust Speed 32 mph    
Visibility 6 miles    
Events Rain    
T = Trace of Precipitation, MM = Missing Value Source: NWS Daily Summary

Daily Weather History Graph

Daily Weather History Graph

Search for Another Location

Airport or City:

Astronomy

Apr. 29, 2014 Rise Set
Actual Time 5:54 AM CDT 7:53 PM CDT
Civil Twilight 5:24 AM CDT 8:23 PM CDT
Nautical Twilight 4:47 AM CDT 9:01 PM CDT
Astronomical Twilight 4:06 AM CDT 9:41 PM CDT
Moon 6:12 AM CDT (4/29) 8:33 PM CDT (4/29)
Length of Visible Light 14h 59m
Length of Day
13h 58m
New Moon, 0% of the Moon is Illuminated
Apr 29
New Moon
May 6
First Quarter
May 14
Full
May 21
Last Quarter
May 28
New

Hourly Weather History & Observations

Time (CDT) Temp. Windchill Dew Point Humidity Pressure Visibility Wind Dir Wind Speed Gust Speed Precip Events Conditions
12:54 AM 48.9 °F - 45.0 °F 86% 29.55 in 6.0 mi ENE 10.4 mph - N/A   Overcast
1:54 AM 50.0 °F - 46.0 °F 86% 29.54 in 5.0 mi East 11.5 mph - 0.00 in Rain Light Rain
2:54 AM 48.9 °F - 46.0 °F 90% 29.52 in 3.0 mi ENE 11.5 mph - 0.00 in   Overcast
3:54 AM 48.0 °F - 46.0 °F 93% 29.51 in 5.0 mi ENE 9.2 mph - N/A   Overcast
4:54 AM 46.9 °F - 45.0 °F 93% 29.51 in 3.0 mi ENE 9.2 mph - 0.00 in   Light Drizzle
5:11 AM 46.9 °F - 45.0 °F 93% 29.50 in 2.0 mi NE 10.4 mph - 0.00 in   Light Drizzle
5:35 AM 46.0 °F 42.5 °F 44.1 °F 93% 29.50 in 2.0 mi East 6.9 mph - 0.00 in   Light Drizzle
5:54 AM 46.0 °F 41.9 °F 45.0 °F 96% 29.50 in 2.0 mi ENE 8.1 mph - 0.00 in   Light Drizzle
6:17 AM 46.0 °F 41.0 °F 44.1 °F 93% 29.49 in 1.5 mi ENE 10.4 mph - 0.00 in   Light Drizzle
6:54 AM 46.0 °F 40.6 °F 44.1 °F 93% 29.50 in 1.5 mi ENE 11.5 mph - 0.00 in   Overcast
7:22 AM 46.0 °F 43.1 °F 45.0 °F 96% 29.51 in 2.0 mi East 5.8 mph - 0.00 in Rain Light Rain
7:54 AM 46.9 °F - 45.0 °F 93% 29.51 in 2.0 mi ENE 10.4 mph - 0.00 in   Overcast
8:54 AM 48.0 °F - 46.0 °F 93% 29.50 in 2.5 mi NE 12.7 mph - 0.00 in Rain Light Rain
9:11 AM 48.9 °F - 46.9 °F 93% 29.49 in 3.0 mi ENE 9.2 mph - 0.00 in Rain Light Rain
9:54 AM 52.0 °F - 48.9 °F 89% 29.49 in 10.0 mi East 9.2 mph - 0.01 in   Overcast
10:05 AM 52.0 °F - 48.0 °F 86% 29.48 in 10.0 mi East 13.8 mph - N/A   Overcast
10:15 AM 51.1 °F - 48.9 °F 92% 29.49 in 10.0 mi East 13.8 mph - N/A   Overcast
10:27 AM 51.1 °F - 48.9 °F 92% 29.48 in 2.5 mi East 13.8 mph - 0.00 in   Light Drizzle
10:45 AM 50.0 °F - 48.0 °F 93% 29.48 in 2.5 mi East 8.1 mph - 0.00 in Rain Light Rain
10:54 AM 50.0 °F - 48.0 °F 93% 29.49 in 2.5 mi East 8.1 mph - 0.00 in Rain Light Rain
11:14 AM 52.0 °F - 48.9 °F 89% 29.49 in 3.0 mi East 10.4 mph - 0.00 in   Overcast
11:28 AM 52.0 °F - 50.0 °F 93% 29.49 in 5.0 mi East 10.4 mph - 0.00 in   Overcast
11:45 AM 53.1 °F - 50.0 °F 89% 29.48 in 5.0 mi East 10.4 mph - 0.00 in   Overcast
11:54 AM 54.0 °F - 51.1 °F 90% 29.48 in 5.0 mi East 10.4 mph - 0.00 in   Overcast
12:26 PM 55.0 °F - 51.1 °F 86% 29.48 in 4.0 mi East 10.4 mph - 0.00 in Rain Light Rain
12:54 PM 55.9 °F - 52.0 °F 87% 29.49 in 9.0 mi SSE 11.5 mph 17.3 mph 0.01 in   Overcast
1:04 PM 57.0 °F - 48.9 °F 74% 29.48 in 10.0 mi South 13.8 mph - N/A   Overcast
1:54 PM 57.0 °F - 43.0 °F 59% 29.49 in 10.0 mi South 19.6 mph - N/A   Overcast
2:54 PM 57.0 °F - 45.0 °F 64% 29.52 in 10.0 mi SSW 15.0 mph - 0.00 in   Overcast
3:54 PM 53.6 °F - 44.6 °F 72% 29.56 in 10.0 mi SSW 16.1 mph 26.5 mph N/A Rain Light Rain
4:54 PM 55.0 °F - 45.0 °F 69% 29.58 in 10.0 mi SSW 16.1 mph 24.2 mph 0.00 in   Overcast
5:54 PM 54.0 °F - 44.1 °F 69% 29.61 in 10.0 mi SSW 15.0 mph 23.0 mph 0.00 in Rain Light Rain
6:54 PM 52.0 °F - 45.0 °F 77% 29.63 in 10.0 mi SSW 12.7 mph - 0.00 in Rain Light Rain
7:54 PM 50.0 °F - 45.0 °F 83% 29.64 in 10.0 mi South 10.4 mph - 0.00 in   Overcast
8:54 PM 50.0 °F - 44.1 °F 80% 29.65 in 10.0 mi South 10.4 mph - 0.00 in Rain Light Rain
9:07 PM 50.0 °F - 44.1 °F 80% 29.65 in 10.0 mi South 8.1 mph - 0.00 in   Overcast
9:14 PM 50.0 °F - 44.1 °F 80% 29.65 in 10.0 mi South 8.1 mph - 0.00 in   Overcast
9:32 PM 48.2 °F - 44.6 °F 87% 29.65 in 10.0 mi South 8.1 mph - N/A   Mostly Cloudy
9:54 PM 48.9 °F - 44.1 °F 83% 29.66 in 10.0 mi SSE 9.2 mph - 0.00 in   Overcast
10:54 PM 46.0 °F 43.1 °F 43.0 °F 89% 29.66 in 10.0 mi South 5.8 mph - N/A   Scattered Clouds
11:54 PM 48.2 °F - 44.6 °F 87% 29.65 in 10.0 mi SSW 6.9 mph - N/A   Overcast